Regional Weather Roundup
Issued by NWS Little Rock, AR

Home | Current Version | Previous Version | Graphics & Text | Print | Product List | Glossary On
Versions: 1 2 3 4 5 6 7 8 9 10 11 12 13 14 15 16 17 18 19 20 21 22 23 24 25 26 27 28 29 30 31 32 33 34 35 36 37 38 39 40 41 42 43 44 45 46 47 48 49 50
000
ASUS44 KLZK 220705
RWRLZK

WEATHER ROUNDUP FOR ARKANSAS
NATIONAL WEATHER SERVICE LITTLE ROCK AR
200 AM CDT TUE JUL 22 2014

NOTE: "FAIR" INDICATES FEW OR NO CLOUDS BELOW 12,000 FEET WITH NO
SIGNIFICANT WEATHER AND/OR OBSTRUCTIONS TO VISIBILITY.

ARZ001-003-010-029-220800-
NORTHWEST ARKANSAS

CITY           SKY/WX    TMP DP  RH WIND       PRES   REMARKS
FAYETTEVILLE   CLEAR     67  67 100 CALM      30.10R
FORT SMITH     CLEAR     74  70  87 E6        30.06S
HARRISON       CLEAR     69  68  96 SE3       30.10F
BENTONVILLE    CLEAR     72  66  83 SE3       30.10F
ROGERS         CLEAR     72  67  84 SE5       30.11S
SILOAM SPGS    CLEAR     70  63  78 SE6       30.09F
HIGHFILL       CLEAR     70  68  93 SE5       30.08F
$$

ARZ004-005-016-220800-
NORTH CENTRAL ARKANSAS

CITY           SKY/WX    TMP DP  RH WIND       PRES   REMARKS
BATESVILLE     CLEAR     68  66  94 CALM      30.08S
FLIPPIN        CLEAR     68  63  83 CALM      30.09F
MTN HOME       CLEAR     68  66  93 CALM      30.09S
$$

ARZ040-041-220800-
WEST CENTRAL ARKANSAS

CITY           SKY/WX    TMP DP  RH WIND       PRES   REMARKS
MENA           CLEAR     70  68  94 CALM      30.10S
MOUNT IDA      CLEAR     67  65  93 CALM      30.06F FOG
$$

ARZ009-017-025-026-028-220800-
NORTHEAST ARKANSAS

CITY           SKY/WX    TMP DP  RH WIND       PRES   REMARKS
CORNING        FAIR      68  68 100 CALM      30.07S FOG
JONESBORO      CLEAR     66  63  90 CALM      30.07R
NEWPORT        CLEAR     70  68  93 W7        30.08S
WALNUT RIDGE   CLEAR     70  48  46 CALM      30.07R
BLYTHEVILLE    CLEAR     69  67  93 NW3       30.07R
$$

ARZ022-023-033-042-044-220800-
CENTRAL ARKANSAS

CITY           SKY/WX    TMP DP  RH WIND       PRES   REMARKS
LITTLE ROCK    CLEAR     71  67  87 CALM      30.07S
N LITTLE ROCK    N/A     70  68  93 W3        30.07S
JACKSONVILLE   CLEAR     68  67  95 CALM      30.07S
SEARCY         CLEAR     68  67  96 CALM      30.08S FOG
HOT SPRINGS    CLEAR     69  66  90 CALM      30.08S
RUSSELLVILLE   CLEAR     69  67  93 CALM      30.07S FOG
CLINTON        FAIR      66  66 100 CALM      30.09F FOG
$$

ARZ036-220800-
EAST ARKANSAS

CITY           SKY/WX    TMP DP  RH WIND       PRES   REMARKS
WEST MEMPHIS   CLEAR     69  69 100 CALM      30.05R FOG
$$

ARZ050-053-066-070-073-220800-
SOUTHWEST ARKANSAS

CITY           SKY/WX    TMP DP  RH WIND       PRES   REMARKS
ARKADELPHIA    FAIR      70  70 100 CALM      30.07F FOG
CAMDEN         FOG       68  66  94 CALM      30.06S VSB<1/4
TEXARKANA      CLEAR     69  69 100 CALM      30.06S
EL DORADO      CLEAR     68  68 100 CALM      30.07R
DE QUEEN       MOCLDY    69  68  96 CALM      30.05F FOG
$$

ARZ056-057-069-220800-
SOUTHEAST ARKANSAS

CITY           SKY/WX    TMP DP  RH WIND       PRES   REMARKS
PINE BLUFF     CLEAR     70  68  93 CALM      30.07R
STUTTGART      CLEAR     72  68  88 N3        30.07S
MONTICELLO     CLEAR     69  67  93 CALM      30.06R

$$





USA.gov is the U.S. government's official web portal to all federal, state and local government web resources and services.